Regional Weather Roundup
Issued by NWS Portland, ME

Current Version | Previous Version | Text Only | Print | Product List | Glossary Off
Versions: 1 2 3 4 5 6 7 8 9 10 11 12 13 14 15 16 17 18 19 20 21 22 23 24 25 26 27 28 29 30 31 32 33 34 35 36 37 38 39 40 41 42 43 44 45 46 47 48 49 50
000 ASUS41 KGYX 201205 RWRGYX WEATHER ROUNDUP FOR MAINE AND NEW HAMPSHIRE NATIONAL WEATHER SERVICE GRAY ME 800 AM EDT THU JUN 20 2019 MEZ002-005-006-010-012-015-018-020-021-024-026-027-029-201300- MAINE CITY SKY/WX TMP DP RH WIND PRES REMARKS PORTLAND FOG 58 57 97 E6 29.75F VSB 3/4 6HR MIN TEMP: 57; 6HR MAX TEMP: 59; SANFORD FOG 59 59 100 E3 29.75R VSB 1/2 BAR HARBOR FOG 58 58 100 CALM 29.79F VSB 1/2 WISCASSET CLOUDY 57 56 96 SE5 29.78R FOG 6HR MIN TEMP: 56; 6HR MAX TEMP: 58; ROCKLAND FOG 55 55 100 E3 29.77F VSB 1/2 FRYEBURG CLOUDY 61 59 93 E3 29.75S FOG 6HR MIN TEMP: 61; 6HR MAX TEMP: 63; LEWISTONAUBURN FOG 58 58 100 E3 29.75F VSB 1 AUGUSTA FOG 58 58 100 SE3 29.76F VSB 1/4 6HR MIN TEMP: 57; 6HR MAX TEMP: 58; WATERVILLE CLOUDY 58 58 100 CALM 29.74F FOG BANGOR CLOUDY 60 57 89 S9 29.77F 6HR MIN TEMP: 57; 6HR MAX TEMP: 60; GREENVILLE N/A 56 56 100 SE8 29.74F 6HR MIN TEMP: 56; 6HR MAX TEMP: 58; MILLINOCKET CLOUDY 59 56 89 VRB3 29.77F 6HR MIN TEMP: 58; 6HR MAX TEMP: 60; 6HR PCP: TRACE; HOULTON CLOUDY 56 54 93 S7 29.76S 6HR MIN TEMP: 55; 6HR MAX TEMP: 60; 6HR PCP: 0.15; PRESQUE ISLE CLOUDY 59 57 93 S8 29.78R 6HR MIN TEMP: 56; 6HR MAX TEMP: 59; 6HR PCP: 0.01; FRENCHVILLE CLOUDY 59 55 87 CALM 29.76S 6HR MIN TEMP: 56; 6HR MAX TEMP: 59; 6HR PCP: 0.01; CARIBOU CLOUDY 60 57 89 S7 29.76R 6HR MIN TEMP: 57; 6HR MAX TEMP: 60; 6HR PCP: TRACE; $$ NHZ002-005-008-009-011-012-014-201300- NEW HAMPSHIRE CITY SKY/WX TMP DP RH WIND PRES REMARKS PORTSMOUTH FOG 60 60 100 SE5 29.73R VSB 1/4 ROCHESTER FOG 62 60 93 E5 29.73S VSB 1/4 6HR MIN TEMP: 60; 6HR MAX TEMP: 62; NASHUA RAIN 66 66 100 E5 29.72F FOG MANCHESTER LGT RAIN 66 64 93 SE6 29.70F 6HR MIN TEMP: 66; 6HR MAX TEMP: 67; 6HR PCP: TRACE; CONCORD LGT RAIN 64 62 93 CALM 29.72S FOG 6HR MIN TEMP: 63; 6HR MAX TEMP: 65; 6HR PCP: 0.02; LACONIA CLOUDY 65 62 90 CALM 29.73S PLYMOUTH CLOUDY 65 63 93 E3 29.72R FOG BERLIN CLOUDY 66 60 81 CALM 29.73F 6HR MIN TEMP: 59; 6HR MAX TEMP: 66; WHITEFIELD CLOUDY 66 61 84 CALM 29.72S 6HR MIN TEMP: 58; 6HR MAX TEMP: 66; JAFFREY CLOUDY 66 63 90 CALM 29.73F FOG 6HR MIN TEMP: 65; 6HR MAX TEMP: 67; 6HR PCP: 0.02; KEENE LGT RAIN 66 65 96 CALM 29.70F LEBANON CLOUDY 70 63 78 CALM 29.69F 6HR MIN TEMP: 67; 6HR MAX TEMP: 71; MT WASHINGTON FOG 50 50 100 SW10 N/A VSB 1/4 6HR MIN TEMP: 49; 6HR MAX TEMP: 52; $$ VTZ005-007-008-201300- VERMONT CITY SKY/WX TMP DP RH WIND PRES REMARKS ST JOHNSBURY N/A 67 65 93 MISG 29.69F MONTPELIER CLOUDY 66 63 90 S6 29.73F BURLINGTON PTSUNNY 70 64 81 SE5 29.65F $$ MAZ007-012-024-CTZ003-RIZ002-NYZ038-NYZ072-201300- SOUTHERN NEW ENGLAND AND NY CITY SKY/WX TMP DP RH WIND PRES REMARKS BOSTON LGT RAIN 61 59 93 E6 29.73S VSB 1/2 WORCESTER FOG 62 62 100 E3 29.73F VSB<1/4 NANTUCKET CLOUDY 61 59 93 SE5 29.73F PROVIDENCE LGT RAIN 63 63 100 E3 29.72F FOG HARTFORD CLOUDY 66 63 90 CALM 29.68F FOG ALBANY CLOUDY 70 64 81 S8 29.64F NEW YORK CITY FOG 63 63 100 NE7 29.65F VSB 1/4 $$ ANZ081-ANZ082-ANZ150-NHZ014-MEZ023>029-201300- COASTAL MARINE OBSERVATIONS STATION/POSITION TIME TEMP WIND PRES WAVE AIR SEA DIR/SP/G HT/PER (UTC) (F) (DEG/KT/KT) (MB) (FT/S) ISLE OF SHOALS 1100 57 140/ 10/ 10 1006.6S CASHES LEDGE BUO 1150 54 53 140/ 6/ 8 1008.2F 2/ 7 GEORGES BANK BUO 1140 53 51 50/ 8/ 10 1008.3F $$ .............KEY.............. WCI - WIND CHILL TC - TEMPERATURE IN CELSIUS VSB - VISIBILITY IN MILES HX - HEAT INDEX FAIR- INDICATES FEW OR NO CLOUDS BELOW 12,000 FT, WITH NO SIGNIFICANT WEATHER AND/OR OBSTRUCTIONS TO VISIBILITY.

USA.gov is the U.S. government's official web portal to all federal, state and local government web resources and services.